FW5486 Weather Reports


Display with metric or nautical units.
time (UTC)temp
F
wind
direction
speed
MPH
gust
MPH
rain 1hr
in
rain 24hr
in
rain mn
in
humidity
%
barometer
mb
20260904173139 89 134 4.0 8.0 0.00 0.01 0.01 71 1016.4
20260904172913 89 107 3.0 9.0 0.00 0.01 0.01 68 1016.4
20260904172138 89 105 2.0 9.0 0.00 0.01 0.01 71 1016.2
20260904171639 88 120 3.0 7.0 0.00 0.01 0.01 70 1016.3
20260904171132 88 103 3.0 9.0 0.00 0.01 0.01 69 1016.5
20260904170631 88 74 4.0 9.0 0.00 0.01 0.01 69 1016.6
20260904170132 88 63 4.0 9.0 0.00 0.01 0.01 70 1016.7
20260904165632 88 95 4.0 9.0 0.00 0.01 0.01 69 1016.8
20260904165132 87 75 3.0 8.0 0.00 0.01 0.01 71 1016.8
20260904164632 87 86 3.0 7.0 0.00 0.01 0.01 74 1016.8
20260904164124 87 103 3.0 9.0 0.00 0.01 0.01 73 1016.8
20260904163626 87 117 3.0 9.0 0.00 0.01 0.01 74 1016.9
20260904163356 87 91 4.0 9.0 0.00 0.01 0.01 74 1016.9
20260904162857 87 111 4.0 9.0 0.00 0.01 0.01 73 1016.9
20260904162125 86 63 3.0 8.0 0.00 0.01 0.01 76 1017.0
20260904161625 86 104 4.0 8.0 0.00 0.01 0.01 76 1017.0
20260904161355 85 73 3.0 9.0 0.00 0.01 0.01 78 1017.1
20260904161120 85 106 4.0 9.0 0.00 0.01 0.01 77 1017.0
20260904160122 85 83 2.0 5.0 0.00 0.01 0.01 79 1017.1
20260904155621 85 63 3.0 7.0 0.00 0.01 0.01 79 1017.0
20260904155120 85 115 2.0 7.0 0.00 0.01 0.01 81 1017.0
20260904154620 84 67 2.0 4.0 0.00 0.01 0.01 80 1017.0
20260904154114 84 74 2.0 4.0 0.00 0.01 0.01 81 1017.0
20260904153615 83 41 2.0 5.0 0.00 0.01 0.01 81 1017.0
20260904153115 83 71 2.0 5.0 0.00 0.01 0.01 82 1017.1
20260904152615 83 22 2.0 4.0 0.00 0.01 0.01 83 1017.0
20260904152113 82 62 1.0 3.0 0.00 0.01 0.01 84 1016.8
20260904151613 82 22 1.0 3.0 0.00 0.01 0.01 83 1016.9
20260904151340 82 36 1.0 3.0 0.00 0.01 0.01 84 1016.8
20260904150610 82 52 0.0 3.0 0.00 0.01 0.01 84 1016.7
20260904150342 81 32 0.0 2.0 0.00 0.01 0.01 87 1016.7
20260904145609 81 5 0.0 2.0 0.00 0.01 0.01 88 1016.6
20260904145107 80 59 0.0 2.0 0.00 0.01 0.01 87 1016.6
20260904144605 80 34 0.0 2.0 0.00 0.01 0.01 87 1016.7
20260904144330 80 67 0.0 2.0 0.00 0.01 0.01 88 1016.7
20260904143559 80 32 0.0 2.0 0.00 0.01 0.01 89 1016.6
20260904143056 80 13 0.0 2.0 0.00 0.01 0.01 91 1016.6
20260904142556 79 27 0.0 2.0 0.01 0.01 0.01 91 1016.4
20260904142057 79 58 1.0 2.0 0.01 0.01 0.01 92 1016.5
20260904141557 78 66 1.0 2.0 0.01 0.01 0.01 92 1016.5
20260904141057 78 64 0.0 2.0 0.01 0.01 0.01 92 1016.5
20260904140552 78 70 0.0 0.0 0.01 0.01 0.01 93 1016.4
20260904140322 78 70 0.0 0.0 0.01 0.01 0.01 94 1016.4
20260904135824 77 70 0.0 0.0 0.01 0.01 0.01 94 1016.4
20260904135052 77 70 0.0 0.0 0.01 0.01 0.01 94 1016.4
20260904134554 77 70 0.0 0.0 0.01 0.01 0.01 94 1016.4
20260904134053 77 70 0.0 0.0 0.01 0.01 0.01 94 1016.4
20260904133548 77 70 0.0 0.0 0.01 0.01 0.01 94 1016.4
20260904133048 76 74 0.0 0.0 0.01 0.01 0.01 94 1016.3
20260904132550 76 74 0.0 0.0 0.00 0.00 0.00 94 1016.3
20260904132048 76 74 0.0 0.0 0.00 0.00 0.00 95 1016.3
20260904131548 76 74 0.0 0.0 0.00 0.00 0.00 95 1016.3
20260904131050 76 74 0.0 0.0 0.00 0.00 0.00 95 1016.3
20260904130549 76 74 0.0 0.0 0.00 0.00 0.00 95 1016.2
20260904130318 76 74 0.0 0.0 0.00 0.00 0.00 95 1016.2
20260904125542 76 74 0.0 0.0 0.00 0.00 0.00 94 1016.1
20260904125043 75 74 0.0 0.0 0.00 0.00 0.00 94 1016.1
20260904124542 75 74 0.0 0.0 0.00 0.00 0.00 94 1016.0
20260904124041 75 73 0.0 0.0 0.00 0.00 0.00 94 1016.0
20260904123541 75 73 0.0 0.0 0.00 0.00 0.00 94 1016.0
20260904123040 75 73 0.0 0.0 0.00 0.00 0.00 94 1016.0
20260904122534 75 73 0.0 0.0 0.00 0.00 0.00 94 1015.9
20260904122032 75 73 0.0 0.0 0.00 0.00 0.00 94 1015.8
20260904121531 75 105 0.0 0.0 0.00 0.00 0.00 94 1015.8
20260904121301 76 105 0.0 0.0 0.00 0.00 0.00 94 1015.6
20260904120528 75 105 0.0 0.0 0.00 0.00 0.00 94 1015.4
20260904120025 75 105 0.0 0.0 0.00 0.00 0.00 94 1015.4
20260904115525 75 106 0.0 0.0 0.00 0.00 0.00 94 1015.5
20260904115024 75 106 0.0 0.0 0.00 0.00 0.00 94 1015.4
20260904114525 75 106 0.0 0.0 0.00 0.00 0.00 94 1015.5
20260904114023 75 106 0.0 1.0 0.00 0.00 0.00 94 1015.4
20260904113524 75 106 0.0 1.0 0.00 0.00 0.00 94 1015.3
20260904113022 75 106 0.0 1.0 0.00 0.00 0.00 94 1015.4
20260904112519 75 106 0.0 1.0 0.00 0.00 0.00 94 1015.3
20260904112249 75 98 0.0 1.0 0.00 0.00 0.00 94 1015.4
20260904111519 75 82 0.0 0.0 0.00 0.00 0.00 94 1015.4
20260904111017 75 76 0.0 0.0 0.00 0.00 0.00 94 1015.3
20260904110516 75 76 0.0 0.0 0.00 0.00 0.00 93 1015.3
20260904110011 75 76 0.0 0.0 0.00 0.00 0.00 93 1015.3
20260904105739 76 76 0.0 0.0 0.00 0.00 0.00 93 1015.1
20260904105007 76 76 0.0 0.0 0.00 0.00 0.00 93 1015.1
20260904104505 76 76 0.0 0.0 0.00 0.00 0.00 93 1015.1
20260904104004 76 76 0.0 0.0 0.00 0.00 0.00 93 1015.0
20260904103458 76 76 0.0 0.0 0.00 0.00 0.00 93 1015.1
20260904102957 76 76 0.0 0.0 0.00 0.00 0.00 93 1015.1
20260904102455 76 76 0.0 1.0 0.00 0.00 0.00 93 1015.0
20260904101953 76 76 0.0 1.0 0.00 0.00 0.00 93 1015.0
20260904101452 76 76 0.0 1.0 0.00 0.00 0.00 94 1015.1
20260904101218 76 76 0.0 2.0 0.00 0.00 0.00 94 1015.0
20260904101105 76 76 0.0 2.0 0.00 0.00 0.00 94 1015.0
20260904100221 76 93 1.0 2.0 0.00 0.00 0.00 94 1015.0
20260904095449 76 85 1.0 2.0 0.00 0.00 0.00 94 1014.9
20260904094947 76 92 0.0 2.0 0.00 0.00 0.00 94 1014.8
20260904094446 76 98 0.0 2.0 0.00 0.00 0.00 94 1014.9
20260904093945 76 99 0.0 2.0 0.00 0.00 0.00 94 1014.9
20260904093443 76 70 0.0 0.0 0.00 0.00 0.00 93 1014.9
20260904092939 76 70 0.0 0.0 0.00 0.00 0.00 93 1015.0
20260904092441 76 70 0.0 0.0 0.00 0.00 0.00 93 1014.8
20260904091940 76 70 0.0 1.0 0.00 0.00 0.00 93 1014.9
20260904091442 76 70 0.0 1.0 0.00 0.00 0.00 93 1014.9
20260904090935 76 70 0.0 1.0 0.00 0.00 0.00 93 1014.9
20260904090704 76 70 0.0 1.0 0.00 0.00 0.00 93 1014.9
20260904085930 76 70 0.0 1.0 0.00 0.00 0.00 93 1014.8
20260904085429 76 70 0.0 2.0 0.00 0.00 0.00 93 1014.8
20260904084930 76 69 1.0 2.0 0.00 0.00 0.00 93 1014.9
20260904084425 76 76 1.0 2.0 0.00 0.00 0.00 93 1014.9
20260904084159 76 74 1.0 2.0 0.00 0.00 0.00 93 1014.9
20260904083427 76 77 0.0 2.0 0.00 0.00 0.00 93 1014.7
20260904082924 76 75 0.0 0.0 0.00 0.00 0.00 93 1014.9
20260904082654 76 75 0.0 0.0 0.00 0.00 0.00 93 1014.8
20260904081922 76 75 0.0 1.0 0.00 0.00 0.00 93 1014.8
20260904081421 76 66 0.0 1.0 0.00 0.00 0.00 93 1014.8
20260904080918 76 34 0.0 0.0 0.00 0.00 0.00 93 1014.7
20260904080418 76 34 0.0 0.0 0.00 0.00 0.00 93 1014.7
20260904075918 76 34 0.0 0.0 0.00 0.00 0.00 93 1014.7
20260904075417 76 34 0.0 0.0 0.00 0.00 0.00 93 1014.7
20260904075147 76 34 0.0 0.0 0.00 0.00 0.00 93 1014.9
20260904074413 76 34 0.0 0.0 0.00 0.00 0.00 93 1014.8
20260904073913 76 34 0.0 0.0 0.00 0.00 0.00 93 1015.0
20260904073409 76 34 0.0 0.0 0.00 0.00 0.00 93 1015.0
20260904072907 76 34 0.0 0.0 0.00 0.00 0.00 93 1014.9
20260904072407 76 34 0.0 0.0 0.00 0.00 0.00 93 1014.9
20260904071909 76 34 0.0 0.0 0.00 0.00 0.00 93 1014.9
20260904071403 76 34 0.0 0.0 0.00 0.00 0.00 92 1014.9
20260904070901 76 34 0.0 0.0 0.00 0.00 0.00 92 1014.9
20260904070358 77 34 0.0 0.0 0.00 0.00 0.00 93 1014.9
20260904065856 77 34 0.0 0.0 0.00 0.00 0.00 93 1015.0
20260904065356 77 34 0.0 0.0 0.00 0.00 0.00 92 1014.9
20260904064850 77 34 0.0 0.0 0.00 0.00 0.00 92 1015.1
20260904064351 77 34 0.0 0.0 0.00 0.00 0.00 92 1015.0
20260904063844 77 34 0.0 0.0 0.00 0.00 0.00 92 1014.9
20260904063610 77 34 0.0 0.0 0.00 0.00 0.00 92 1015.0
20260904063458 77 34 0.0 0.0 0.00 0.00 0.00 92 1015.0
20260904062340 77 34 0.0 0.0 0.00 0.00 0.00 92 1015.0
20260904061839 77 34 0.0 0.0 0.00 0.00 0.00 92 1015.1
20260904061611 77 34 0.0 0.0 0.00 0.00 0.00 92 1014.9
20260904060840 77 34 0.0 0.0 0.00 0.00 0.00 92 1015.1
20260904060341 77 34 0.0 0.0 0.00 0.00 0.00 92 1015.1
20260904055841 77 34 0.0 0.0 0.00 0.00 0.00 92 1015.1
20260904055339 77 34 0.0 0.0 0.00 0.00 0.00 92 1015.0
20260904054839 78 34 0.0 0.0 0.00 0.00 0.00 91 1015.1
20260904054340 78 34 0.0 0.0 0.00 0.00 0.00 92 1014.9
20260904053835 78 34 0.0 0.0 0.00 0.00 0.00 92 1015.0
20260904053335 78 34 0.0 0.0 0.00 0.00 0.00 92 1015.0
20260904052836 78 34 0.0 0.0 0.00 0.00 0.00 92 1014.9
20260904052335 78 34 0.0 0.0 0.00 0.00 0.00 92 1014.9
20260904051834 78 34 0.0 0.0 0.00 0.00 0.00 92 1014.8
20260904051336 78 34 0.0 0.0 0.00 0.00 0.00 91 1014.8
20260904050835 78 34 0.0 0.0 0.00 0.00 0.00 91 1014.9
20260904050336 78 34 0.0 1.0 0.00 0.00 0.00 91 1014.9
20260904045835 78 34 0.0 2.0 0.00 0.00 0.00 91 1014.8
20260904045333 78 34 0.0 2.0 0.00 0.00 0.00 91 1014.9
20260904045103 78 65 0.0 0.0 0.00 0.00 0.00 91 1015.0
20260904044331 78 65 0.0 0.0 0.00 0.00 0.00 91 1014.9
20260904043829 78 63 0.0 2.0 0.00 0.00 0.00 91 1014.9
20260904043329 78 63 0.0 2.0 0.00 0.00 0.00 91 1015.0
20260904043101 78 81 0.0 0.0 0.00 0.00 0.00 91 1015.1
20260904042948 79 82 0.0 0.0 0.00 0.00 0.00 91 1015.1
20260904041826 79 82 0.0 0.0 0.00 0.00 0.00 91 1015.0
20260904041555 79 69 0.0 0.0 0.00 0.00 0.00 91 1014.9
20260904041053 79 69 0.0 0.0 0.00 0.00 0.00 90 1014.9
20260904040323 79 69 0.0 0.0 0.00 0.00 0.00 90 1014.9
20260904035823 79 69 0.0 0.0 0.00 0.00 0.00 90 1014.9
20260904035321 79 69 0.0 1.0 0.00 0.00 0.00 91 1015.0
20260904034822 79 30 0.0 1.0 0.00 0.00 0.00 90 1015.0
20260904034315 79 29 0.0 2.0 0.00 0.00 0.00 89 1014.9
20260904034043 79 22 0.0 2.0 0.00 0.00 0.00 89 1015.0
20260904033311 79 155 0.0 0.0 0.00 0.00 0.00 89 1015.0
20260904032808 79 155 0.0 0.0 0.00 0.00 0.00 89 1014.9
20260904032309 79 155 0.0 0.0 0.00 0.00 0.00 89 1015.0
20260904032037 80 155 0.0 0.0 0.00 0.00 0.00 88 1015.0
20260904031305 80 155 0.0 0.0 0.00 0.00 0.00 88 1015.0
20260904030805 80 175 0.0 0.0 0.00 0.00 0.00 89 1014.9
20260904030305 80 175 0.0 0.0 0.00 0.00 0.00 89 1014.8
20260904030035 80 174 0.0 1.0 0.00 0.00 0.00 89 1014.8
20260904025305 80 140 0.0 1.0 0.00 0.00 0.00 89 1014.7
20260904024757 80 158 0.0 0.0 0.00 0.00 0.00 89 1014.8
20260904024254 80 95 0.0 0.0 0.00 0.00 0.00 89 1014.9
20260904023752 80 92 0.0 0.0 0.00 0.00 0.00 88 1014.7
20260904023251 80 90 0.0 0.0 0.00 0.00 0.00 88 1014.7
20260904022750 80 90 0.0 0.0 0.00 0.00 0.00 88 1014.7
20260904022248 80 90 0.0 0.0 0.00 0.00 0.00 88 1014.8
20260904021747 80 90 0.0 0.0 0.00 0.00 0.00 88 1014.9
20260904021248 80 89 0.0 0.0 0.00 0.00 0.00 87 1014.9
20260904020746 80 89 0.0 0.0 0.00 0.00 0.00 87 1014.9
20260904020247 80 89 0.0 0.0 0.00 0.00 0.00 87 1015.1
20260904015746 80 89 0.0 0.0 0.00 0.00 0.00 87 1015.0
20260904015248 80 89 0.0 0.0 0.00 0.00 0.00 87 1015.1
20260904014740 80 89 0.0 0.0 0.00 0.00 0.00 86 1015.1
20260904014241 81 88 0.0 0.0 0.00 0.00 0.00 86 1015.2
20260904013739 81 88 0.0 0.0 0.00 0.00 0.00 86 1015.1
20260904013241 81 123 0.0 0.0 0.00 0.00 0.00 85 1015.2
20260904012741 81 125 0.0 0.0 0.00 0.00 0.00 85 1015.0
20260904012240 81 125 0.0 0.0 0.00 0.00 0.00 84 1015.0
20260904011736 82 125 0.0 0.0 0.00 0.00 0.00 84 1015.1
20260904011508 82 137 0.0 0.0 0.00 0.00 0.00 83 1015.1
20260904010736 82 133 1.0 3.0 0.00 0.00 0.00 83 1014.9
20260904010237 82 133 1.0 3.0 0.00 0.00 0.00 82 1014.8
20260904005734 82 173 0.0 1.0 0.00 0.00 0.00 82 1014.8
20260904005505 82 265 0.0 0.0 0.00 0.00 0.00 82 1014.7
20260904004731 82 266 0.0 0.0 0.00 0.00 0.00 81 1014.6
20260904004230 82 266 0.0 0.0 0.00 0.00 0.00 81 1014.6
20260904003958 83 266 0.0 0.0 0.00 0.00 0.00 82 1014.4
20260904003457 83 266 0.0 0.0 0.00 0.00 0.00 80 1014.4
20260904002724 83 270 0.0 0.0 0.00 0.00 0.00 80 1014.5
20260904002224 83 270 0.0 0.0 0.00 0.00 0.00 80 1014.4
20260904001949 83 290 0.0 1.0 0.00 0.00 0.00 79 1014.4
20260904001452 84 290 0.0 2.0 0.00 0.00 0.00 79 1014.5
20260904001217 83 290 0.0 1.0 0.00 0.00 0.00 78 1014.5
20260904000212 84 290 0.0 2.0 0.00 0.00 0.00 78 1014.4
20260903235943 84 268 0.0 3.0 0.00 0.00 0.00 78 1014.4
20260903235209 84 268 0.0 3.0 0.00 0.00 0.00 78 1014.4
20260903234710 84 262 0.0 2.0 0.00 0.00 0.00 79 1014.5
20260903234209 84 261 0.0 2.0 0.00 0.00 0.00 79 1014.4
20260903233707 84 209 0.0 2.0 0.00 0.00 0.00 78 1014.5
20260903233209 84 199 0.0 2.0 0.00 0.00 0.00 78 1014.5
20260903232708 84 211 0.0 2.0 0.00 0.00 0.00 77 1014.4
20260903232208 85 211 0.0 2.0 0.00 0.00 0.00 78 1014.3
20260903231938 85 211 0.0 2.0 0.00 0.00 0.00 77 1014.2
20260903231205 85 263 0.0 2.0 0.00 0.00 0.00 77 1014.2
20260903230706 86 228 0.0 2.0 0.00 0.00 0.00 76 1014.0
20260903230450 86 257 0.0 2.0 0.00 0.00 0.00 74 1013.9
20260903225705 86 259 0.0 1.0 0.00 0.00 0.00 74 1013.9
20260903225204 86 232 0.0 1.0 0.00 0.00 0.00 74 1014.0
20260903224705 86 219 0.0 2.0 0.00 0.00 0.00 75 1014.1
20260903224203 86 260 0.0 2.0 0.00 0.00 0.00 76 1014.1
20260903223706 85 260 0.0 2.0 0.00 0.00 0.00 78 1014.2
20260903223205 84 259 0.0 2.0 0.00 0.00 0.00 79 1014.2
20260903222704 84 290 1.0 4.0 0.00 0.00 0.00 79 1014.3
20260903222205 83 263 1.0 4.0 0.00 0.00 0.00 81 1014.5
20260903221659 83 273 0.0 3.0 0.00 0.00 0.00 82 1014.4
20260903221200 82 285 0.0 3.0 0.00 0.00 0.00 83 1014.3
20260903220658 82 285 1.0 4.0 0.00 0.00 0.00 83 1014.5
20260903220159 82 276 1.0 4.0 0.00 0.00 0.00 82 1014.6
20260903215659 81 261 0.0 3.0 0.00 0.00 0.00 82 1014.6
20260903215200 81 294 1.0 3.0 0.00 0.00 0.00 82 1014.7
20260903214654 81 322 1.0 5.0 0.00 0.00 0.00 82 1014.8
20260903214155 81 222 1.0 5.0 0.00 0.00 0.00 82 1014.9
20260903213656 81 273 0.0 5.0 0.00 0.00 0.00 83 1014.8
20260903213156 81 267 1.0 6.0 0.00 0.00 0.00 82 1014.9
20260903212655 81 258 1.0 6.0 0.00 0.00 0.00 84 1014.8
20260903212156 81 263 1.0 8.0 0.00 0.00 0.00 84 1014.8
20260903211700 82 273 2.0 7.0 0.00 0.00 0.00 83 1015.1
20260903211655 81 279 2.0 8.0 0.00 0.00 0.00 83 1014.7
20260903210652 82 241 2.0 7.0 0.00 0.00 0.00 80 1015.3
20260903210152 83 276 1.0 8.0 0.00 0.00 0.00 79 1015.2
20260903205648 83 201 2.0 8.0 0.00 0.00 0.00 78 1015.4
20260903205147 84 216 3.0 9.0 0.00 0.00 0.00 77 1015.7
20260903204916 84 283 4.0 9.0 0.00 0.00 0.00 75 1015.6
20260903204146 85 259 3.0 7.0 0.00 0.00 0.00 72 1015.7
20260903203644 87 238 3.0 8.0 0.00 0.00 0.00 69 1015.8
20260903203143 90 224 2.0 8.0 0.00 0.00 0.00 67 1015.6
20260903202636 92 235 2.0 7.0 0.00 0.00 0.00 64 1015.5
20260903202136 93 123 2.0 7.0 0.00 0.00 0.00 60 1015.2
20260903201634 93 217 2.0 6.0 0.00 0.00 0.00 60 1015.2
20260903201132 93 152 1.0 6.0 0.00 0.00 0.00 60 1015.2
20260903200631 93 188 1.0 8.0 0.00 0.00 0.00 63 1015.2
20260903200357 93 109 2.0 8.0 0.00 0.00 0.00 59 1015.1
20260903195622 93 123 2.0 8.0 0.00 0.00 0.00 59 1015.0
20260903195123 93 133 3.0 8.0 0.00 0.00 0.00 59 1015.0
20260903194624 93 124 3.0 5.0 0.00 0.00 0.00 62 1015.0
20260903194124 92 126 3.0 6.0 0.00 0.00 0.00 59 1015.1
20260903193855 92 82 2.0 8.0 0.00 0.00 0.00 59 1015.1
20260903193121 93 117 1.0 8.0 0.00 0.00 0.00 62 1015.4
20260903192619 92 105 2.0 7.0 0.00 0.00 0.00 59 1015.5
20260903192353 92 127 2.0 7.0 0.00 0.00 0.00 59 1015.5
20260903191620 92 107 3.0 8.0 0.00 0.00 0.00 61 1015.5
20260903191118 92 106 3.0 8.0 0.00 0.00 0.00 61 1015.6
20260903190617 92 107 2.0 4.0 0.00 0.00 0.00 61 1015.6
20260903190116 92 28 3.0 7.0 0.00 0.00 0.00 59 1015.7
20260903185614 92 134 3.0 9.0 0.00 0.00 0.00 61 1015.6
20260903185119 92 84 3.0 8.0 0.00 0.00 0.00 58 1015.8
20260903185113 92 123 3.0 9.0 0.00 0.00 0.00 60 1015.8
20260903184112 92 101 4.0 9.0 0.00 0.00 0.00 59 1015.9
20260903183611 91 78 4.0 9.0 0.00 0.00 0.00 60 1015.9
20260903183104 91 126 4.0 8.0 0.00 0.00 0.00 64 1016.0
20260903182603 91 134 3.0 7.0 0.00 0.00 0.00 64 1016.1
20260903182101 91 78 3.0 8.0 0.00 0.00 0.00 64 1016.1
20260903181600 91 110 2.0 8.0 0.00 0.00 0.00 66 1016.0
20260903181059 90 109 2.0 7.0 0.00 0.00 0.00 68 1016.2
20260903180558 90 103 2.0 4.0 0.00 0.00 0.00 67 1016.2
20260903180327 90 103 2.0 8.0 0.00 0.00 0.00 67 1016.2
20260903175555 91 54 2.0 8.0 0.00 0.00 0.00 65 1016.2
20260903175056 91 120 2.0 8.0 0.00 0.00 0.00 62 1016.3
20260903174553 91 107 2.0 8.0 0.00 0.00 0.00 61 1016.3
20260903174054 91 47 2.0 7.0 0.00 0.00 0.00 64 1016.3
20260903173550 91 103 1.0 7.0 0.00 0.00 0.00 64 1016.4